Weather Roundup
Issued by NWS Chicago, IL

Home | Current Version | Previous Version | Graphics & Text | Print | Product List | Glossary On
Versions: 1 2 3 4 5 6 7 8 9 10 11 12 13 14 15 16 17 18 19 20 21 22 23 24 25 26 27 28 29 30 31 32 33 34 35 36 37 38 39 40 41 42 43 44 45 46 47 48 49 50
492
NZUS59 KLOT 211508
HRRLOT

CHICAGO AREA WEATHER ROUNDUP
NATIONAL WEATHER SERVICE CHICAGO/ROMEOVILLE IL
1000 AM CDT SAT APR 21 2018

NOTE: "FAIR" INDICATES FEW OR NO CLOUDS BELOW 12,000 FEET WITH NO
SIGNIFICANT WEATHER AND/OR OBSTRUCTIONS TO VISIBILITY.

* THESE STATIONS ARE NOT UNDER NWS QUALITY CONTROL. THEY ALSO MAY NOT
  REPORT WEATHER SUCH AS PRECIPITATION OR FOG.

ILZ005-006-012>014-019>023-211600-
NORTHEAST ILLINOIS

CITY           SKY/WX    TMP DP  RH WIND       PRES   REMARKS
OHARE          CLOUDY    48  19  31 CALM      30.45S
MIDWAY         CLOUDY    49  22  34 CALM      30.46S
AURORA         CLOUDY    48  26  42 CALM      30.46R
LANSING*       CLOUDY    45  28  51 CALM      30.46S
JOLIET*        CLOUDY    48  26  41 CALM      30.46S
WAUKEGAN       CLOUDY    44  23  43 CALM      30.47R
DUPAGE AIRPORT CLOUDY    46  27  47 CALM      30.46R
WHEELING       CLOUDY    47  24  40 CALM      30.48R
KANKAKEE*      CLOUDY    46  27  46 CALM      30.47R
MORRIS*        CLOUDY    46  29  52 CALM      30.46S
LEWIS AIRPORT* CLOUDY    47  26  44 S6        30.46S
NORTHERLY ISL    N/A     41  29  62 N3          N/A
$$

WIZ051-052-058>065-066-070>072-211600-
SOUTHEAST WISCONSIN

CITY           SKY/WX    TMP DP  RH WIND       PRES   REMARKS
MILWAUKEE      CLOUDY    46  24  42 CALM      30.47S
KENOSHA*       CLOUDY    45  25  45 CALM      30.47R
RACINE*          N/A     46  24  42 CALM      30.48R
BURLINGTON       N/A     42  27  57 CALM      30.47R
WAUKESHA       MOSUNNY   39  23  52 CALM      30.47S
WEST BEND        N/A     43  23  45 CALM      30.47R
$$

INZ001>003-010>013-019-020-211600-
NORTHWEST INDIANA

CITY           SKY/WX    TMP DP  RH WIND       PRES   REMARKS
GARY*          CLOUDY    48  21  34 VRB3      30.46S
MICHIGAN CITY* NOT AVBL
RENSSELAER*    NOT AVBL
VALPARAISO     CLOUDY    49  28  44 SW6       30.46R
$$

LMZ740>746-211600-
SOUTHERN LAKE MICHIGAN

STATION/POSITION TIME  SKY/WX   TEMP WIND        PRES    VSBY
                                AIR  DIR/SP/G
                 (UTC)          (F)  (DEG/KT/KT) (MB)    (MI)
HARRISON CRIB    1440            40  360/  4/  5   N/A
BURNHAM HARBOR   1500            41   20/  2/  6   N/A
CALUMET HARBOR   1442            41  340/  5/  6 1030.7R
BURNS HARBOR     1440            41  340/  3/  6 1031.8R
MICHIGAN CITY    1440            42  350/  3/  4   N/A
$$

ABBREVIATIONS USED IN REMARKS
   TC - TEMPERATURE IN CELSIUS
  WCI - WIND CHILL INDEX
   HX - HEAT INDEX
  VSB - VISIBILITY
$$




USA.gov is the U.S. government's official web portal to all federal, state and local government web resources and services.